User: anonymous   Login
Location: Unspecified
(0.0000°N, 0.0000°E)
Time: 01:06:56
(UTC+00:00)
Language:

SBIRS GEO 4 (USA 282) - Orbit

View from above orbital plane
View from above orbital plane
View from above satellite
View from above satellite

Ground track
Ground track

The orbit data is extracted from the following two-line orbital elements,

1 43162U 18009A   18095.79099802 0.00000000  00000-0  00000-0 0    04
2 43162   6.3252 319.8752 0006791 124.1827 235.8990  1.00270000    05
Epoch (UTC): 05 April 2018 18:59:02
Eccentricity: 0.0006791
inclination: 6.3252°
perigee height: 35758 km
apogee height: 35815 km
right ascension of ascending node: 319.8752°
argument of perigee: 124.1827°
revolutions per day: 1.00270000
mean anomaly at epoch: 235.8990°
orbit number at epoch: 0

The dashed part of the orbit path shows where the satellite is in the earth's shadow,  

DLR